Home   Weather   Lubango   Past weeks

Flag for Angola Past Weather in Lubango, Angola — Yesterday and Last 2 Weeks

Now
70 °F

Clear.


Feels Like: 70 °F
Forecast: 52 / 83 °F
Wind: 5 mph from South

Location: Luanda Airport

Current Time: Aug 19, 2017 at 9:48:22 pm

Latest Report: Aug 19, 2017 at 9:00 pm


Visibility: 10 mi

Pressure: 29.95 "Hg (24.40 "Hg at 1765m altitude)

Humidity: 83%

Dew Point: 64 °F

Location of LubangoLocation

Past Weather in Lubango — Graph

°F

Lubango Temperature Yesterday

Maximum temperature yesterday: 81 °F (at 1:00 pm)
Minimum temperature yesterday: 68 °F (at 2:00 am)
Average temperature yesterday: 73 °F

High & Low Weather Summary for the Past Weeks

 TemperatureHumidityPressure
High81 °F (Aug 11, 12:00 pm)94% (Aug 4, 10:00 pm)30.07 "Hg (Aug 4, 10:00 pm)
Low64 °F (Aug 12, 6:00 am)45% (Aug 18, 2:00 pm)29.83 "Hg (Aug 14, 3:00 pm)
Average71 °F79%29.95 "Hg
* Reported Aug 4 8:00 pm — Aug 19 8:00 pm, Lubango. Weather by CustomWeather, © 2017

Note: Actual official high and low records may vary slightly from our data, if they occured in-between our weather recording intervals... More about our weather records

Advertising

Lubango Weather History for the Previous 24 Hours

Scroll right to see more
 ConditionsComfort  
Time TempWeatherWind HumidityBarometerVisibility
8:00 pm
Sat, Aug 19
70 °FClear.7 mph83%29.92 "Hg10 mi
7:00 pm72 °FClear.7 mph78%29.92 "Hg10 mi
6:00 pm73 °FSunny.12 mph74%29.89 "Hg10 mi
5:00 pm75 °FSunny.9 mph74%29.86 "Hg10 mi
3:00 pm77 °FSunny.12 mph65%29.86 "Hg10 mi
2:00 pm77 °FPassing clouds.9 mph69%29.89 "HgN/A
1:00 pm75 °FPassing clouds.9 mph74%29.92 "HgN/A
12:00 pm75 °FScattered clouds.7 mph69%29.95 "Hg6 mi
11:00 am77 °FScattered clouds.6 mph65%29.95 "Hg5 mi
10:00 am73 °FPassing clouds.7 mph74%29.98 "Hg4 mi
9:00 am72 °FFog.7 mph78%29.98 "Hg3 mi
8:00 am68 °FFog.9 mph88%29.98 "Hg3 mi
7:00 am66 °FFog.7 mph94%29.95 "Hg2 mi
6:00 am66 °FPassing clouds.5 mph94%29.95 "Hg5 mi
5:00 am66 °FPassing clouds.5 mph94%29.89 "Hg5 mi
4:00 am66 °FPassing clouds.5 mph94%29.89 "Hg5 mi
3:00 am66 °FPassing clouds.6 mph94%29.89 "Hg5 mi
2:00 am66 °FPassing clouds.9 mph94%29.89 "Hg5 mi
1:00 am68 °FPassing clouds.9 mph88%29.89 "Hg5 mi
12:00 am68 °FClear.9 mph88%29.92 "Hg5 mi
11:00 pm
Fri, Aug 18
68 °FClear.8 mph94%29.92 "Hg5 mi
10:00 pm70 °FClear.9 mph83%29.89 "Hg5 mi
9:00 pm72 °FClear.7 mph78%29.89 "Hg10 mi
Weather by CustomWeather, © 2017

See weather overviewHow to use our weather pages